Time,TemperatureF,DewpointF,PressureIn,WindDirection,WindDirectionDegrees,WindSpeedMPH,WindSpeedGustMPH,Humidity,HourlyPrecipIn,Conditions,Clouds,dailyrainin,SoftwareType,DateUTC
2013-07-07 07:05:00,68.1,64.7,30.08,SSW,194,0.0,0.0,89,0.00,,,0.00,Wunderground v.1.15,2013-07-07 12:05:00,
2013-07-07 07:10:00,68.3,64.9,30.08,South,174,0.0,0.0,89,0.00,,,0.00,Wunderground v.1.15,2013-07-07 12:10:00,
2013-07-07 07:15:00,68.4,65.0,30.07,SW,235,0.0,0.0,89,0.00,,,0.00,Wunderground v.1.15,2013-07-07 12:15:00,
2013-07-07 07:20:00,68.6,64.9,30.08,South,172,1.0,1.0,88,0.00,,,0.00,Wunderground v.1.15,2013-07-07 12:20:00,
2013-07-07 07:25:00,68.9,65.2,30.08,SSE,150,1.0,1.0,88,0.00,,,0.00,Wunderground v.1.15,2013-07-07 12:25:00,
2013-07-07 07:30:00,69.0,65.3,30.08,South,170,1.0,2.0,88,0.00,,,0.00,Wunderground v.1.15,2013-07-07 12:30:00,
2013-07-07 07:35:00,69.2,65.5,30.08,SSE,160,1.0,2.0,88,0.00,,,0.00,Wunderground v.1.15,2013-07-07 12:35:00,
2013-07-07 07:45:00,69.7,65.7,30.08,SW,216,1.0,1.0,87,0.00,,,0.00,Wunderground v.1.15,2013-07-07 12:45:00,
2013-07-07 07:50:00,69.9,65.9,30.08,SSW,195,0.0,0.0,87,0.00,,,0.00,Wunderground v.1.15,2013-07-07 12:50:00,
2013-07-07 08:00:00,70.2,65.8,30.08,South,176,1.0,2.0,86,0.00,,,0.00,Wunderground v.1.15,2013-07-07 13:00:00,
2013-07-07 08:10:00,71.8,66.7,30.08,South,181,1.0,5.0,84,0.00,,,0.00,Wunderground v.1.15,2013-07-07 13:10:00,
2013-07-07 08:15:00,72.6,66.8,30.08,SE,142,2.0,5.0,82,0.00,,,0.00,Wunderground v.1.15,2013-07-07 13:15:00,
2013-07-07 08:25:00,73.8,67.2,30.08,SW,219,2.0,4.0,80,0.00,,,0.00,Wunderground v.1.15,2013-07-07 13:25:00,
2013-07-07 08:30:00,74.2,67.3,30.08,SW,229,2.0,2.0,79,0.00,,,0.00,Wunderground v.1.15,2013-07-07 13:30:00,
2013-07-07 08:40:00,75.0,67.3,30.08,WSW,246,2.0,2.0,77,0.00,,,0.00,Wunderground v.1.15,2013-07-07 13:40:00,
2013-07-07 08:45:00,75.4,67.7,30.08,South,170,2.0,6.0,77,0.00,,,0.00,Wunderground v.1.15,2013-07-07 13:45:00,
2013-07-07 08:55:00,75.7,67.6,30.08,SSW,207,2.0,7.0,76,0.00,,,0.00,Wunderground v.1.15,2013-07-07 13:55:00,
2013-07-07 09:00:00,75.9,67.8,30.08,WSW,250,3.0,4.0,76,0.00,,,0.00,Wunderground v.1.15,2013-07-07 14:00:00,
2013-07-07 09:10:00,76.2,68.1,30.08,SW,219,3.0,3.0,76,0.00,,,0.00,Wunderground v.1.15,2013-07-07 14:10:00,
2013-07-07 09:20:00,76.7,68.6,30.08,WSW,246,2.0,2.0,76,0.00,,,0.00,Wunderground v.1.15,2013-07-07 14:20:00,
2013-07-07 09:30:00,77.5,68.6,30.07,SW,232,2.0,2.0,74,0.00,,,0.00,Wunderground v.1.15,2013-07-07 14:30:00,
2013-07-07 09:35:00,77.8,68.4,30.07,South,172,3.0,3.0,73,0.00,,,0.00,Wunderground v.1.15,2013-07-07 14:35:00,
2013-07-07 09:45:00,78.6,69.2,30.07,SW,217,2.0,2.0,73,0.00,,,0.00,Wunderground v.1.15,2013-07-07 14:45:00,
2013-07-07 09:55:00,79.2,70.2,30.07,South,177,2.0,5.0,74,0.00,,,0.00,Wunderground v.1.15,2013-07-07 14:55:00,
2013-07-07 10:00:00,79.2,69.4,30.07,South,172,3.0,4.0,72,0.00,,,0.00,Wunderground v.1.15,2013-07-07 15:00:00,
2013-07-07 10:10:00,79.4,69.2,30.07,SW,219,3.0,5.0,71,0.00,,,0.00,Wunderground v.1.15,2013-07-07 15:10:00,
2013-07-07 10:15:00,79.7,69.5,30.07,West,262,3.0,5.0,71,0.00,,,0.00,Wunderground v.1.15,2013-07-07 15:15:00,
2013-07-07 10:25:00,79.1,69.7,30.07,SSW,200,3.0,3.0,73,0.00,,,0.00,Wunderground v.1.15,2013-07-07 15:25:00,
2013-07-07 10:35:00,79.0,69.6,30.07,South,169,2.0,2.0,73,0.00,,,0.00,Wunderground v.1.15,2013-07-07 15:35:00,
2013-07-07 10:40:00,78.9,69.5,30.07,SSW,204,2.0,6.0,73,0.00,,,0.00,Wunderground v.1.15,2013-07-07 15:40:00,
2013-07-07 10:50:00,80.1,70.3,30.07,SSW,199,3.0,5.0,72,0.00,,,0.00,Wunderground v.1.15,2013-07-07 15:50:00,
2013-07-07 11:00:00,80.4,70.5,30.07,SSE,166,4.0,5.0,72,0.00,,,0.00,Wunderground v.1.15,2013-07-07 16:00:00,
2013-07-07 11:10:00,81.1,71.6,30.07,WSW,243,3.0,3.0,73,0.00,,,0.00,Wunderground v.1.15,2013-07-07 16:10:00,
2013-07-07 11:15:00,81.6,71.3,30.07,SSW,210,3.0,3.0,71,0.00,,,0.00,Wunderground v.1.15,2013-07-07 16:15:00,
2013-07-07 11:25:00,82.0,71.2,30.07,South,183,2.0,5.0,70,0.00,,,0.00,Wunderground v.1.15,2013-07-07 16:25:00,
2013-07-07 11:35:00,82.0,70.8,30.07,South,187,3.0,5.0,69,0.00,,,0.00,Wunderground v.1.15,2013-07-07 16:35:00,
2013-07-07 11:40:00,82.0,72.1,30.07,SSE,148,3.0,4.0,72,0.00,,,0.00,Wunderground v.1.15,2013-07-07 16:40:00,
2013-07-07 11:50:00,82.3,71.5,30.07,South,179,3.0,3.0,70,0.00,,,0.00,Wunderground v.1.15,2013-07-07 16:50:00,
2013-07-07 11:55:00,83.0,72.2,30.06,SSE,150,3.0,3.0,70,0.00,,,0.00,Wunderground v.1.15,2013-07-07 16:55:00,
2013-07-07 12:00:00,83.0,71.8,30.06,WSW,238,2.0,6.0,69,0.00,,,0.00,Wunderground v.1.15,2013-07-07 17:00:00,
2013-07-07 12:10:00,83.4,70.8,30.06,SE,139,3.0,3.0,66,0.00,,,0.00,Wunderground v.1.15,2013-07-07 17:10:00,
2013-07-07 12:20:00,84.3,72.6,30.06,SSW,211,3.0,3.0,68,0.00,,,0.00,Wunderground v.1.15,2013-07-07 17:20:00,
2013-07-07 12:30:00,85.0,72.4,30.06,SSW,201,3.0,3.0,66,0.00,,,0.00,Wunderground v.1.15,2013-07-07 17:30:00,
2013-07-07 12:40:00,85.7,73.0,30.06,SW,224,3.0,3.0,66,0.00,,,0.00,Wunderground v.1.15,2013-07-07 17:40:00,
2013-07-07 12:45:00,85.6,71.6,30.06,WSW,248,4.0,4.0,63,0.00,,,0.00,Wunderground v.1.15,2013-07-07 17:45:00,
2013-07-07 12:55:00,86.1,72.5,30.06,SSW,201,3.0,4.0,64,0.00,,,0.00,Wunderground v.1.15,2013-07-07 17:55:00,
2013-07-07 13:00:00,86.1,71.6,30.05,SW,229,3.0,3.0,62,0.00,,,0.00,Wunderground v.1.15,2013-07-07 18:00:00,
2013-07-07 13:10:00,86.6,71.5,30.05,SW,229,3.0,4.0,61,0.00,,,0.00,Wunderground v.1.15,2013-07-07 18:10:00,
2013-07-07 13:15:00,86.7,72.1,30.05,South,174,3.0,4.0,62,0.00,,,0.00,Wunderground v.1.15,2013-07-07 18:15:00,
2013-07-07 13:25:00,86.6,71.1,30.05,SSW,204,4.0,4.0,60,0.00,,,0.00,Wunderground v.1.15,2013-07-07 18:25:00,
2013-07-07 13:30:00,87.1,72.5,30.05,SW,221,3.0,5.0,62,0.00,,,0.00,Wunderground v.1.15,2013-07-07 18:30:00,
2013-07-07 13:40:00,87.5,72.4,30.05,South,176,3.0,5.0,61,0.00,,,0.00,Wunderground v.1.15,2013-07-07 18:40:00,
2013-07-07 13:45:00,87.5,72.4,30.05,East,90,4.0,7.0,61,0.00,,,0.00,Wunderground v.1.15,2013-07-07 18:45:00,
2013-07-07 13:55:00,87.7,71.6,30.05,SW,217,3.0,4.0,59,0.00,,,0.00,Wunderground v.1.15,2013-07-07 18:55:00,
2013-07-07 14:00:00,87.9,72.3,30.05,South,169,3.0,3.0,60,0.00,,,0.00,Wunderground v.1.15,2013-07-07 19:00:00,
2013-07-07 14:10:00,87.7,69.5,30.04,SSE,160,5.0,6.0,55,0.00,,,0.00,Wunderground v.1.15,2013-07-07 19:10:00,
2013-07-07 14:15:00,88.0,70.9,30.04,SW,219,5.0,6.0,57,0.00,,,0.00,Wunderground v.1.15,2013-07-07 19:15:00,
2013-07-07 14:20:00,88.1,70.9,30.04,SW,218,4.0,7.0,57,0.00,,,0.00,Wunderground v.1.15,2013-07-07 19:20:00,
2013-07-07 14:30:00,88.4,69.1,30.04,SW,232,4.0,4.0,53,0.00,,,0.00,Wunderground v.1.15,2013-07-07 19:30:00,
2013-07-07 14:40:00,88.7,68.8,30.04,South,187,4.0,7.0,52,0.00,,,0.00,Wunderground v.1.15,2013-07-07 19:40:00,
2013-07-07 14:45:00,88.7,69.4,30.04,South,174,4.0,7.0,53,0.00,,,0.00,Wunderground v.1.15,2013-07-07 19:45:00,
2013-07-07 14:55:00,89.2,70.4,30.04,SSE,163,4.0,6.0,54,0.00,,,0.00,Wunderground v.1.15,2013-07-07 19:55:00,
2013-07-07 15:00:00,89.1,69.7,30.04,West,271,5.0,5.0,53,0.00,,,0.00,Wunderground v.1.15,2013-07-07 20:00:00,
2013-07-07 15:10:00,89.2,70.4,30.04,West,261,4.0,4.0,54,0.00,,,0.00,Wunderground v.1.15,2013-07-07 20:10:00,
2013-07-07 15:15:00,89.3,70.5,30.03,SW,229,3.0,4.0,54,0.00,,,0.00,Wunderground v.1.15,2013-07-07 20:15:00,
2013-07-07 15:25:00,89.3,69.9,30.03,SW,235,5.0,5.0,53,0.00,,,0.00,Wunderground v.1.15,2013-07-07 20:25:00,
2013-07-07 15:30:00,89.5,69.5,30.03,South,172,4.0,4.0,52,0.00,,,0.00,Wunderground v.1.15,2013-07-07 20:30:00,
2013-07-07 15:40:00,89.5,69.5,30.03,WSW,253,4.0,5.0,52,0.00,,,0.00,Wunderground v.1.15,2013-07-07 20:40:00,
2013-07-07 15:50:00,89.5,69.0,30.03,SSW,210,4.0,5.0,51,0.00,,,0.00,Wunderground v.1.15,2013-07-07 20:50:00,
2013-07-07 16:00:00,89.6,70.2,30.03,South,188,4.0,4.0,53,0.00,,,0.00,Wunderground v.1.15,2013-07-07 21:00:00,
2013-07-07 16:10:00,89.0,68.5,30.03,SW,222,5.0,5.0,51,0.00,,,0.00,Wunderground v.1.15,2013-07-07 21:10:00,
2013-07-07 16:15:00,88.4,69.1,30.03,SW,217,4.0,5.0,53,0.00,,,0.00,Wunderground v.1.15,2013-07-07 21:15:00,
2013-07-07 16:20:00,88.2,70.0,30.03,South,177,3.0,3.0,55,0.00,,,0.00,Wunderground v.1.15,2013-07-07 21:20:00,
2013-07-07 16:30:00,88.8,70.0,30.02,SW,219,4.0,4.0,54,0.00,,,0.00,Wunderground v.1.15,2013-07-07 21:30:00,
2013-07-07 16:40:00,88.7,71.0,30.02,SW,226,3.0,4.0,56,0.00,,,0.00,Wunderground v.1.15,2013-07-07 21:40:00,
2013-07-07 16:50:00,88.7,71.0,30.02,SSW,212,5.0,5.0,56,0.00,,,0.00,Wunderground v.1.15,2013-07-07 21:50:00,
2013-07-07 16:55:00,88.4,70.7,30.02,SSW,210,4.0,5.0,56,0.00,,,0.00,Wunderground v.1.15,2013-07-07 21:55:00,
2013-07-07 17:00:00,88.0,71.4,30.02,South,179,4.0,6.0,58,0.00,,,0.00,Wunderground v.1.15,2013-07-07 22:00:00,
2013-07-07 17:10:00,88.5,71.8,30.02,WSW,251,3.0,5.0,58,0.00,,,0.00,Wunderground v.1.15,2013-07-07 22:10:00,
2013-07-07 17:15:00,88.7,72.0,30.02,SSW,210,3.0,5.0,58,0.00,,,0.00,Wunderground v.1.15,2013-07-07 22:15:00,
2013-07-07 17:20:00,88.9,72.7,30.02,WSW,243,3.0,3.0,59,0.00,,,0.00,Wunderground v.1.15,2013-07-07 22:20:00,
2013-07-07 17:25:00,88.9,71.7,30.02,South,187,3.0,3.0,57,0.00,,,0.00,Wunderground v.1.15,2013-07-07 22:25:00,
2013-07-07 17:30:00,89.1,72.9,30.01,SSW,195,3.0,3.0,59,0.00,,,0.00,Wunderground v.1.15,2013-07-07 22:30:00,
2013-07-07 17:35:00,89.2,73.0,30.01,South,173,3.0,4.0,59,0.00,,,0.00,Wunderground v.1.15,2013-07-07 22:35:00,
2013-07-07 17:45:00,88.8,71.1,30.01,SSW,210,4.0,6.0,56,0.00,,,0.00,Wunderground v.1.15,2013-07-07 22:45:00,
2013-07-07 17:55:00,88.5,70.3,30.02,WSW,250,4.0,4.0,55,0.00,,,0.00,Wunderground v.1.15,2013-07-07 22:55:00,
2013-07-07 18:00:00,88.4,70.7,30.01,SW,235,4.0,4.0,56,0.00,,,0.00,Wunderground v.1.15,2013-07-07 23:00:00,
2013-07-07 18:10:00,88.1,70.9,30.01,WSW,239,3.0,3.0,57,0.00,,,0.00,Wunderground v.1.15,2013-07-07 23:10:00,
2013-07-07 18:15:00,87.8,71.2,30.01,South,181,2.0,3.0,58,0.00,,,0.00,Wunderground v.1.15,2013-07-07 23:15:00,
2013-07-07 18:25:00,87.5,71.4,30.01,SSW,204,2.0,2.0,59,0.00,,,0.00,Wunderground v.1.15,2013-07-07 23:25:00,
2013-07-07 18:30:00,87.6,72.0,30.02,SW,215,2.0,2.0,60,0.00,,,0.00,Wunderground v.1.15,2013-07-07 23:30:00,
2013-07-07 18:40:00,87.6,72.0,30.02,SW,224,2.0,2.0,60,0.00,,,0.00,Wunderground v.1.15,2013-07-07 23:40:00,
2013-07-07 18:50:00,87.5,72.9,30.02,SSW,212,2.0,2.0,62,0.00,,,0.00,Wunderground v.1.15,2013-07-07 23:50:00,
2013-07-07 19:00:00,87.2,72.1,30.02,South,190,2.0,2.0,61,0.00,,,0.00,Wunderground v.1.15,2013-07-08 00:00:00,
2013-07-07 19:10:00,86.9,72.8,30.02,SW,217,1.0,1.0,63,0.00,,,0.00,Wunderground v.1.15,2013-07-08 00:10:00,
2013-07-07 19:20:00,86.4,73.2,30.02,SSE,163,1.0,1.0,65,0.00,,,0.00,Wunderground v.1.15,2013-07-08 00:20:00,
2013-07-07 19:30:00,85.9,73.2,30.02,WSW,243,1.0,1.0,66,0.00,,,0.00,Wunderground v.1.15,2013-07-08 00:30:00,
2013-07-07 19:40:00,85.2,73.0,30.02,South,172,1.0,1.0,67,0.00,,,0.00,Wunderground v.1.15,2013-07-08 00:40:00,
2013-07-07 19:45:00,84.9,73.2,30.02,SSE,158,0.0,1.0,68,0.00,,,0.00,Wunderground v.1.15,2013-07-08 00:45:00,
2013-07-07 19:55:00,84.3,73.0,30.02,SSE,167,1.0,1.0,69,0.00,,,0.00,Wunderground v.1.15,2013-07-08 00:55:00,
2013-07-07 20:00:00,83.9,73.5,30.02,South,176,1.0,1.0,71,0.00,,,0.00,Wunderground v.1.15,2013-07-08 01:00:00,
2013-07-07 20:10:00,82.9,73.8,30.02,SSE,167,0.0,0.0,74,0.00,,,0.00,Wunderground v.1.15,2013-07-08 01:10:00,
2013-07-07 20:15:00,82.4,73.7,30.02,SSE,167,0.0,0.0,75,0.00,,,0.00,Wunderground v.1.15,2013-07-08 01:15:00,
2013-07-07 20:25:00,81.7,73.4,30.02,South,177,0.0,1.0,76,0.00,,,0.00,Wunderground v.1.15,2013-07-08 01:25:00,
2013-07-07 20:35:00,81.1,73.2,30.02,South,169,0.0,1.0,77,0.00,,,0.00,Wunderground v.1.15,2013-07-08 01:35:00,
2013-07-07 20:45:00,80.5,73.4,30.03,South,177,1.0,2.0,79,0.00,,,0.00,Wunderground v.1.15,2013-07-08 01:45:00,
2013-07-07 20:50:00,80.2,73.5,30.03,South,174,1.0,1.0,80,0.00,,,0.00,Wunderground v.1.15,2013-07-08 01:50:00,
2013-07-07 21:00:00,79.5,73.5,30.02,South,174,1.0,1.0,82,0.00,,,0.00,Wunderground v.1.15,2013-07-08 02:00:00,
2013-07-07 21:10:00,79.0,73.4,30.03,South,177,1.0,1.0,83,0.00,,,0.00,Wunderground v.1.15,2013-07-08 02:10:00,
2013-07-07 21:20:00,78.5,72.9,30.03,South,187,1.0,1.0,83,0.00,,,0.00,Wunderground v.1.15,2013-07-08 02:20:00,
2013-07-07 21:30:00,77.9,72.7,30.03,South,186,1.0,2.0,84,0.00,,,0.00,Wunderground v.1.15,2013-07-08 02:30:00,
2013-07-07 21:40:00,77.7,72.8,30.03,South,183,1.0,1.0,85,0.00,,,0.00,Wunderground v.1.15,2013-07-08 02:40:00,
2013-07-07 21:45:00,77.5,72.6,30.04,South,181,1.0,1.0,85,0.00,,,0.00,Wunderground v.1.15,2013-07-08 02:45:00,
2013-07-07 21:55:00,77.0,72.5,30.04,SSW,192,0.0,1.0,86,0.00,,,0.00,Wunderground v.1.15,2013-07-08 02:55:00,
2013-07-07 22:00:00,76.8,72.3,30.03,SW,214,0.0,0.0,86,0.00,,,0.00,Wunderground v.1.15,2013-07-08 03:00:00,
2013-07-07 22:10:00,76.9,72.4,30.04,SSW,200,2.0,2.0,86,0.00,,,0.00,Wunderground v.1.15,2013-07-08 03:10:00,